Content
SEND FEEDBACK

Daily
Averages
Monthly
Summary
United States of America

SWAN FALLS DAM, IDAHO


Home > North America > United States > Idaho
Elevation: 869 meters     Latitude: 43 15N     Longitude: 116 23W

WEATHER
 
SELECT A DAY
Number of Records: 162,817;   Date Range: 5/14/10 - 12/19/14
 
SHARE

PRINT THIS DATA

[ ← Previous Day ]
WEATHER ALMANAC - 31 JANUARY, 2013
[ Next Day → ]
[ °F ]   °C
Weather ElementAverageHighLow
Temperature1.8 °C8 °C (3:55 pm)-2 °C (12:55 am)
Dewpoint1.2 °C5 °C (12:55 pm)-2 °C (12:55 am)
Humidity96.3 %100 % (12:35 am)71 % (4:15 pm)
Barometer1026.8 hPa1028.1 hPa (9:35 am)1025.1 hPa (9:15 pm)
Wind Speed1.8 km/h13 km/h (2:35 pm)
Weather ElementAverage
Visibility14.3 km
Wind DirectionNNE (23.2 °)

Weather ElementTotal
Precipitation---
Heating Degree Days15.3 (Base 18.3)
Averaged from 66 records on 31 January, 2013
WEATHER CONDITIONS BREAKOUT
WIND DIRECTION BREAKOUT
WEATHER BY HOUR - 31 JANUARY, 2013
[ °F ]   °C
Local TimeTemperatureDewpointHumidityBarometerVisibilityWind DirectionWind SpeedGust SpeedPrecipitationEventsConditions
12:35 AM-1 °C-1 °C100 %1027.1 hPa11.3 kmCalmClear
12:55 AM-2 °C-2 °C100 %1027.1 hPa9.7 kmCalmClear
1:15 AM-2 °C-2 °C100 %1027.1 hPa8 kmCalmClear
1:35 AM-2 °C-2 °C100 %1027.4 hPa8 kmEast (80°)5.6 km/hClear
1:55 AM-2 °C-2 °C100 %1027.4 hPa8 kmCalmClear
2:15 AM-2 °C-2 °C100 %1027.4 hPa14.5 kmCalmClear
2:35 AM-2 °C-2 °C100 %1027.4 hPa14.5 kmCalmPartly Cloudy
2:55 AM-2 °C-2 °C100 %1027.8 hPa14.5 kmCalmMostly Cloudy
3:15 AM-2 °C-2 °C100 %1027.8 hPa8 kmCalmOvercast
3:35 AM-1 °C-1 °C100 %1027.4 hPa11.3 kmEast (80°)5.6 km/hOvercast
3:55 AM-2 °C-2 °C100 %1027.1 hPa11.3 kmSE (140°)5.6 km/hOvercast
4:15 AM-1 °C-1 °C100 %1027.4 hPa12.9 kmCalmOvercast
4:55 AM0 °C0 °C100 %1027.4 hPa14.5 kmEast (100°)5.6 km/hOvercast
5:35 AM0 °C0 °C100 %1027.4 hPa12.9 kmEast (90°)7.4 km/hOvercast
5:55 AM0 °C0 °C100 %1027.1 hPa16.1 kmEast (90°)5.6 km/hOvercast
6:15 AM0 °C0 °C100 %1027.4 hPa16.1 kmCalmOvercast
6:35 AM0 °C0 °C100 %1027.4 hPa12.9 kmCalmOvercast
6:55 AM0 °C0 °C100 %1027.4 hPa12.9 kmCalmOvercast
7:15 AM0 °C0 °C100 %1027.4 hPa16.1 kmSE (140°)5.6 km/hOvercast
7:35 AM0 °C0 °C100 %1027.4 hPa16.1 kmEast (100°)5.6 km/hOvercast
7:55 AM0 °C0 °C100 %1027.8 hPa16.1 kmCalmOvercast
8:15 AM0 °C0 °C100 %1027.8 hPa16.1 kmESE (120°)5.6 km/hOvercast
8:35 AM0 °C0 °C100 %1027.4 hPa16.1 kmCalmOvercast
8:55 AM0 °C0 °C100 %1027.8 hPa14.5 kmSouth (180°)5.6 km/hOvercast
9:15 AM1 °C1 °C100 %1027.8 hPa16.1 kmCalmOvercast
9:35 AM1 °C1 °C100 %1028.1 hPa16.1 kmCalmOvercast
9:55 AM1 °C1 °C100 %1027.8 hPa16.1 kmCalmOvercast
10:15 AM2 °C2 °C100 %1028.1 hPa16.1 kmCalmOvercast
10:35 AM3 °C3 °C100 %1028.1 hPa16.1 kmCalmOvercast
10:55 AM3 °C3 °C100 %1028.1 hPa16.1 kmCalmOvercast
11:15 AM3 °C3 °C100 %1028.1 hPa16.1 kmCalmOvercast
11:35 AM4 °C4 °C100 %1028.1 hPa16.1 kmCalmOvercast
11:55 AM4 °C4 °C100 %1027.8 hPa16.1 kmCalmOvercast
12:15 PM4 °C4 °C100 %1027.4 hPa16.1 kmCalmOvercast
12:55 PM5 °C5 °C100 %1027.1 hPa16.1 kmCalmOvercast
1:15 PM5 °C5 °C100 %1027.1 hPa16.1 kmCalmOvercast
1:35 PM6 °C4 °C87 %1026.8 hPa16.1 kmCalmOvercast
1:55 PM7 °C5 °C87 %1026.8 hPa16.1 kmCalmOvercast
2:15 PM7 °C5 °C87 %1026.4 hPa16.1 kmNE (40°)7.4 km/hOvercast
2:35 PM7 °C4 °C81 %1026.1 hPa16.1 kmNE (40°)13 km/hMostly Cloudy
2:55 PM7 °C4 °C81 %1026.1 hPa16.1 kmNE (40°)13 km/hPartly Cloudy
3:15 PM7 °C4 °C81 %1025.7 hPa16.1 kmNE (50°)11.1 km/hClear
3:55 PM8 °C4 °C76 %1025.7 hPa16.1 kmCalmClear
4:15 PM8 °C3 °C71 %1025.4 hPa16.1 kmCalmClear
4:35 PM8 °C4 °C76 %1025.4 hPa16.1 kmCalmClear
4:55 PM7 °C4 °C81 %1025.4 hPa16.1 kmCalmClear
5:15 PM7 °C3 °C76 %1025.4 hPa16.1 kmCalmClear
5:35 PM7 °C4 °C81 %1025.4 hPa16.1 kmCalmClear
5:55 PM5 °C4 °C93 %1025.4 hPa16.1 kmCalmClear
6:15 PM4 °C4 °C100 %1025.4 hPa16.1 kmCalmScattered Clouds
6:35 PM4 °C4 °C100 %1025.4 hPa16.1 kmCalmOvercast
6:55 PM2 °C2 °C100 %1025.4 hPa16.1 kmCalmMostly Cloudy
7:15 PM2 °C2 °C100 %1025.4 hPa16.1 kmCalmScattered Clouds
7:55 PM0 °C0 °C100 %1025.4 hPa14.5 kmCalmMostly Cloudy
8:15 PM0 °C0 °C100 %1025.4 hPa14.5 kmCalmMostly Cloudy
8:35 PM0 °C0 °C100 %1025.4 hPa11.3 kmCalmMostly Cloudy
8:55 PM0 °C0 °C100 %1025.4 hPa12.9 kmCalmScattered Clouds
9:15 PM0 °C0 °C100 %1025.1 hPa11.3 kmCalmMostly Cloudy
9:35 PM0 °C0 °C100 %1025.1 hPa11.3 kmCalmMostly Cloudy
9:55 PM0 °C0 °C100 %1025.1 hPa12.9 kmCalmMostly Cloudy
10:15 PM0 °C0 °C100 %1025.4 hPa12.9 kmCalmMostly Cloudy
10:35 PM0 °C0 °C100 %1025.1 hPa16.1 kmCalmScattered Clouds
10:55 PM0 °C0 °C100 %1025.4 hPa8 kmCalmPartly Cloudy
11:15 PM0 °C0 °C100 %1025.4 hPa16.1 kmNE (50°)5.6 km/hMostly Cloudy
11:35 PM0 °C0 °C100 %1025.4 hPa12.9 kmCalmOvercast
11:55 PM-1 °C-1 °C100 %1025.1 hPa8 kmSouth (190°)5.6 km/hMostly Cloudy
Hourly data recorded from KMAN, located 0 kilometers away from Swan Falls Dam, Idaho







STORIES FROM OUR PARTNERS